カタログに戻る

CZ-6A DEB

運用中SSO
NORAD 57579·DEBRIS·🇨🇳 China

打ち上げ Nov 11, 2022 から Taiyuan Satellite Launch Center

Loading…

次のパス (今後24時間)

TLE

経年Source: Space-Track

元期: Sep 6, 2026, 07:33 UTC

1 57579U 22151AHW 26249.31481111  .00000907  00000-0  40371-3 0  9991
2 57579  98.7531 266.1230 0025310  94.9416 265.4654 14.25204418175020

AllMySatでCZ-6A DEBをリアルタイム追跡

Download on the App Store